Location: *
(45.1961°N, 1.9694°E)
Time: 16:40:14
(UTC+00:00)

CZ-2C R/B - Pass Details

Date: 25 August 2019
Orbit: 785 x 871 km, 98.3° (Epoch: 16 September)

Event Time Altitude Azimuth Distance (km) Brightness Sun altitude
Rises 21:15:07 0° 11° (N) 3,325 6.3 -23.7°
Reaches altitude 10° 21:17:26 10° 10° (N) 2,401 5.5 -24.0°
Maximum altitude 21:22:44 72° 287° (WNW) 865 2.8 -24.6°
Enters shadow 21:25:16 32° 210° (SSW) 1,382 3.6 -24.9°
